Location: Sumter
(33.9203°N, 80.3401°W)
Time: 22:48:32
(UTC+00:00)

ISS - Pass Details

Date: 22 August 2022
Orbit: 414 x 417 km, 51.6° (Epoch: 24 September)

Event Time Altitude Azimuth Distance (km) Brightness Sun altitude
Exits shadow 09:35:44 21° 197° (SSW) 980 -2.3 -14.9°
Maximum altitude 09:37:35 46° 133° (SE) 567 -3.0 -14.6°
Drops below altitude 10° 09:40:50 10° 58° (ENE) 1,495 0.5 -14.0°
Sets 09:42:58 0° 53° (NE) 2,361 1.8 -13.6°
